Weather History for Buffalo, NY

Change the Weather History Date:

Saturday, August 11, 2012

  Actual Average Record
Temperature  
Mean Temperature 68 °F 70 °F  
Max Temperature 73 °F 79 °F 92 °F (1988)
Min Temperature 63 °F 62 °F 48 °F (1962)
Degree Days  
Heating Degree Days 0 0  
Month to date heating degree days 0 0  
Since 1 June heating degree days 48 73  
Since 1 July heating degree days 0 9  
Cooling Degree Days 3 6  
Month to date cooling degree days 107 66  
Year to date cooling degree days 685 392  
Since 1 June cooling degree days 591 366  
Growing Degree Days 18 (Base 50)    
Moisture  
Dew Point 57 °F    
Average Humidity 70    
Maximum Humidity 87    
Minimum Humidity 53    
Precipitation  
Precipitation T in 0.11 in 1.57 in (1937)
Month to date precipitation 0.82 1.20  
Year to date precipitation 16.32 23.10  
Snow  
Snow 0.00 in 0.00 in 0.00 in ()
Month to date snowfall 0.0 0.0  
Since 1 June snowfall 0.0 0.0  
Since 1 July snowfall 0.0 0.0  
Snow Depth 0.00 in    
Sea Level Pressure  
Sea Level Pressure 29.79 in    
Wind  
Wind Speed 14 mph (SSW)    
Max Wind Speed 24 mph    
Max Gust Speed 30 mph    
Visibility 10 miles    
Events Rain    
T = Trace of Precipitation, MM = Missing Value Source: NWS Daily Summary

Daily Weather History Graph

Daily Weather History Graph

Search for Another Location

Airport:

Trip Planner

Search our weather history database for the weather conditions in past years. The results will help you decide how hot, cold, wet, or windy it might be!

Date:

Astronomy

Aug. 11, 2012 Rise Set
Actual Time 6:17 AM EDT 8:22 PM EDT
Civil Twilight 5:46 AM EDT 8:53 PM EDT
Nautical Twilight 5:07 AM EDT 9:31 PM EDT
Astronomical Twilight 4:26 AM EDT 10:12 PM EDT
Moon 12:41 AM EDT (8/11) 3:57 PM EDT (8/11)
Length of Visible Light 15h 07m
Length of Day
14h 05m
Waning Crescent, 33% of the Moon is Illuminated
Aug 11
Waning Crescent
Aug 17
New
Aug 24
First Quarter
Aug 31
Full
Sep 8
Last Quarter

Hourly Weather History & Observations

Time (EDT) Temp. Dew Point Humidity Pressure Visibility Wind Dir Wind Speed Gust Speed Precip Events Conditions
12:54 AM 66.0 °F 61.0 °F 84% 29.71 in 10.0 mi SSW 9.2 mph - N/A   Scattered Clouds
1:54 AM 64.9 °F 61.0 °F 87% 29.71 in 10.0 mi South 8.1 mph - N/A   Scattered Clouds
2:54 AM 64.9 °F 61.0 °F 87% 29.71 in 10.0 mi SSW 5.8 mph - N/A   Scattered Clouds
3:54 AM 64.9 °F 61.0 °F 87% 29.71 in 10.0 mi SSE 4.6 mph - N/A   Scattered Clouds
4:54 AM 64.0 °F 60.1 °F 87% 29.72 in 10.0 mi South 6.9 mph - N/A   Scattered Clouds
5:54 AM 64.0 °F 61.0 °F 90% 29.74 in 10.0 mi South 5.8 mph - N/A   Mostly Cloudy
6:54 AM 64.9 °F 60.1 °F 84% 29.76 in 10.0 mi South 6.9 mph - N/A   Scattered Clouds
7:54 AM 66.9 °F 60.1 °F 79% 29.75 in 10.0 mi South 8.1 mph - N/A   Scattered Clouds
8:54 AM 68.0 °F 57.0 °F 68% 29.75 in 10.0 mi SW 12.7 mph 21.9 mph N/A   Mostly Cloudy
9:28 AM 69.8 °F 57.2 °F 64% 29.77 in 10.0 mi SSW 17.3 mph 24.2 mph N/A   Scattered Clouds
9:54 AM 71.1 °F 55.0 °F 57% 29.76 in 10.0 mi SSW 20.7 mph 25.3 mph N/A   Mostly Cloudy
10:54 AM 70.0 °F 55.0 °F 59% 29.78 in 10.0 mi SSW 18.4 mph 25.3 mph N/A   Mostly Cloudy
11:54 AM 68.0 °F 55.0 °F 63% 29.79 in 10.0 mi South 16.1 mph - N/A   Overcast
12:54 PM 69.1 °F 55.0 °F 61% 29.79 in 10.0 mi SSW 17.3 mph - N/A   Mostly Cloudy
1:54 PM 70.0 °F 55.0 °F 59% 29.80 in 10.0 mi SSW 15.0 mph - N/A   Overcast
2:54 PM 73.0 °F 55.9 °F 55% 29.81 in 10.0 mi South 21.9 mph 29.9 mph N/A   Mostly Cloudy
3:54 PM 73.0 °F 55.0 °F 53% 29.80 in 10.0 mi South 20.7 mph 25.3 mph N/A   Mostly Cloudy
4:54 PM 71.1 °F 55.0 °F 57% 29.81 in 10.0 mi SSW 16.1 mph 27.6 mph N/A   Overcast
5:54 PM 70.0 °F 55.0 °F 59% 29.82 in 10.0 mi SSW 19.6 mph 25.3 mph N/A   Overcast
6:54 PM 68.0 °F 55.9 °F 65% 29.83 in 10.0 mi SSW 19.6 mph - N/A   Overcast
7:40 PM 66.2 °F 57.2 °F 73% 29.84 in 10.0 mi SSW 17.3 mph 23.0 mph N/A   Overcast
7:54 PM 66.9 °F 57.0 °F 70% 29.84 in 10.0 mi SSW 13.8 mph - N/A   Overcast
8:35 PM 68.0 °F 57.2 °F 68% 29.85 in 10.0 mi SSW 12.7 mph 23.0 mph N/A   Overcast
8:44 PM 68.0 °F 55.4 °F 64% 29.85 in 9.0 mi SSW 18.4 mph 25.3 mph N/A   Overcast
8:52 PM 66.2 °F 57.2 °F 73% 29.85 in 8.0 mi SSW 17.3 mph 25.3 mph 0.00 in Rain Light Rain
8:54 PM 66.0 °F 57.9 °F 75% 29.85 in 9.0 mi SSW 15.0 mph 25.3 mph 0.00 in   Overcast
9:54 PM 66.9 °F 57.0 °F 70% 29.87 in 10.0 mi SSW 17.3 mph 24.2 mph 0.00 in   Overcast
10:54 PM 66.0 °F 57.9 °F 75% 29.87 in 10.0 mi SSW 16.1 mph - N/A   Overcast
11:54 PM 66.0 °F 57.9 °F 75% 29.86 in 10.0 mi SSW 13.8 mph - N/A   Overcast